[[[{"header":{"parameterUnit":"kt","parameterCategory":2,"dx":1,"dy":1,"la1":30.253999710083008,"la2":30.299108505249023,"lo1":-89.0895004272461,"lo2":-89.04439544677734,"nx":28,"ny":28,"refTime":"2022-09-19T21:00:00:Z","depth":0,"parameterNumber":1,"parameterNumberName":"U-component_of_WINDS"},"data":[-1.723,-1.7386,-1.7399,-1.7583,-1.7625,-1.7755,-1.7805,-1.7872,-1.7928,-1.8084,-1.8176,-1.8205,-1.8268,-1.8382,-1.8483,-1.8494,-1.8539,-1.8584,-1.8591,-1.8372,-1.8343,-1.8316,-1.8281,-1.8592,-1.8593,-1.8819,-1.8821,-1.8822,-1.707,-1.7114,-1.7214,-1.7321,-1.7407,-1.7371,-1.7453,-1.7529,-1.7645,-1.7715,-1.7806,-1.7944,-1.8055,-1.8103,-1.8213,-1.8288,-1.828,-1.8318,-1.8316,-1.8328,-1.8092,-1.8055,-1.8323,-1.8323,-1.8323,-1.8323,-1.8323,-1.8323,-1.6784,-1.6876,-1.6948,-1.7057,-1.7114,-1.7185,-1.7276,-1.7309,-1.7408,-1.7523,-1.7519,-1.7651,-1.7725,-1.7863,-1.7913,-1.8018,-1.7979,-1.8026,-1.8039,-1.8053,-1.8067,-1.7748,-1.8036,-1.8035,-1.8034,-1.8034,-1.8033,0,-1.658,-1.6585,-1.6682,-1.6783,-1.6863,-1.6942,-1.7018,-1.7074,-1.7088,-1.717,-1.7289,-1.736,-1.75,-1.7615,-1.772,-1.7763,-1.7739,-1.7735,-1.7769,-1.7778,-1.7771,-1.7783,-1.7405,-1.7728,-1.7726,-1.7724,-1.7723,-1.7722,-1.6299,-1.6402,-1.6483,-1.6549,-1.6593,-1.67,-1.6766,-1.6771,-1.6842,-1.6936,-1.7017,-1.713,-1.7223,-1.7411,-1.7452,-1.7558,-1.7548,-1.7671,-1.7564,-1.7566,-1.7558,-1.7555,-1.7568,-1.7694,-1.7698,-1.7701,-1.7703,0,-1.614,-1.616,-1.6325,-1.6395,-1.6415,-1.6525,-1.6585,-1.6677,-1.6699,-1.683,-1.686,-1.6897,-1.7014,-1.7034,-1.7172,-1.7179,-1.7366,-1.7349,-1.7341,-1.7341,-1.7458,-1.745,-1.7823,-1.7874,-1.7544,-1.7547,-1.755,0,-1.591,-1.6046,-1.6069,-1.6164,-1.6316,-1.6317,-1.6468,-1.6502,-1.6564,-1.6667,-1.6638,-1.6736,-1.6745,-1.6846,-1.6857,-1.7012,-1.7035,-1.7053,-1.7056,-1.706,-1.7059,-1.7104,-1.7092,-1.7049,-1.7048,-1.7046,-1.7044,0,-1.5665,-1.5834,-1.5987,-1.603,-1.6118,-1.619,-1.6231,-1.63,-1.6365,-1.6452,-1.6496,-1.6596,-1.6654,-1.6733,-1.6748,-1.6675,-1.6935,-1.6838,-1.6954,-1.6954,-1.7015,-1.7013,-1.7332,-1.7042,-1.7041,-1.7041,-1.704,0,-1.5485,-1.5572,-1.5789,-1.5863,-1.5907,-1.6007,-1.6108,-1.6197,-1.6273,-1.6286,-1.6355,-1.6341,-1.6472,-1.6376,-1.656,-1.6462,-1.6521,-1.6548,-1.6556,-1.6576,-1.6469,-1.6654,-1.695,-1.6985,-1.6585,-1.6581,-1.6578,0,-1.5202,-1.5425,-1.5429,-1.5634,-1.5741,-1.5704,-1.5815,-1.5882,-1.5909,-1.6004,-1.6033,-1.6143,-1.6074,-1.6112,-1.6199,-1.6236,-1.6362,-1.6218,-1.6363,-1.6368,-1.6351,-1.6621,-1.6664,-1.6881,-1.653,-1.6535,-1.6538,0,-1.4986,-1.5091,-1.5127,-1.5177,-1.5264,-1.5353,-1.5479,-1.5587,-1.5651,-1.5726,-1.5836,-1.5986,-1.5943,-1.6004,-1.6003,-1.6094,-1.6277,-1.6035,-1.6038,-1.6084,-1.6505,-1.6545,-1.6581,-1.6256,-1.6262,-1.6267,-1.65,0,-1.4721,-1.4833,-1.493,-1.5039,-1.5109,-1.5237,-1.5258,-1.5329,-1.5321,-1.5347,-1.5505,-1.5565,-1.5677,-1.572,-1.5713,-1.5912,-1.5884,-1.5835,-1.5748,-1.5923,-1.6001,-1.6032,-1.563,-1.5628,-1.5626,-1.5624,0,0,-1.4448,-1.461,-1.461,-1.4732,-1.4793,-1.4753,-1.4889,-1.4943,-1.5053,-1.5097,-1.5046,-1.5269,-1.5321,-1.5512,-1.5568,-1.561,-1.565,-1.5588,-1.5838,-1.5862,-1.5884,-1.5967,-1.5999,-1.562,-1.562,-1.5619,-1.5618,0,-1.4357,-1.4406,-1.4539,-1.4594,-1.4676,-1.4696,-1.4728,-1.4803,-1.4826,-1.4979,-1.4947,-1.5044,-1.522,-1.5282,-1.5336,-1.5563,-1.5537,-1.5594,-1.5712,-1.5816,-1.5842,-1.5866,-1.5953,-1.5983,-1.5613,-1.5613,-1.5614,0,-1.4153,-1.4207,-1.4272,-1.4403,-1.4457,-1.4567,-1.4478,-1.4596,-1.4679,-1.4632,-1.4785,-1.4822,-1.4904,-1.5079,-1.5158,-1.5116,-1.5433,-1.5334,-1.5348,-1.536,-1.5462,-1.5493,-1.5522,-1.515,-1.5149,-1.5147,0,0,-1.4072,-1.4175,-1.4235,-1.4385,-1.4421,-1.4453,-1.4513,-1.4511,-1.4584,-1.4614,-1.4661,-1.4734,-1.4837,-1.4905,-1.5003,-1.5191,-1.5211,-1.5277,-1.5298,-1.5316,-1.5337,-1.5444,-1.5475,-1.5141,-1.5141,-1.514,0,0,-1.4034,-1.4109,-1.4088,-1.4264,-1.4334,-1.4405,-1.4497,-1.4473,-1.4562,-1.4551,-1.4555,-1.4575,-1.4739,-1.4777,-1.4688,-1.4973,-1.4885,-1.4907,-1.4944,-1.4972,-1.4993,-1.4983,-1.4609,0,0,0,0,0,-1.3952,-1.4099,-1.4079,-1.4112,-1.4279,-1.4415,-1.4437,-1.4443,-1.4381,-1.4454,-1.449,-1.4455,-1.473,-1.4652,-1.4685,-1.4786,-1.5058,-1.5073,-1.5086,-1.5178,-1.5207,-1.5231,0,0,0,0,0,0,-1.3965,-1.4005,-1.4075,-1.4152,-1.419,-1.441,-1.4307,-1.4313,-1.4374,-1.4365,-1.4449,-1.4458,-1.4467,-1.4635,-1.4665,-1.4761,-1.4599,-1.5064,-1.5076,-1.5087,-1.5188,-1.5212,-1.5232,0,0,0,0,0,-1.3975,-1.4007,-1.4273,-1.415,-1.4183,-1.4227,-1.4301,-1.4306,-1.4353,-1.4409,-1.4416,-1.4353,-1.447,-1.4495,-1.4653,-1.4747,-1.4579,-1.459,-1.5072,-1.5082,-1.509,-1.52,0,0,0,0,0,0,-1.3983,-1.4012,-1.4279,-1.429,-1.4095,-1.4214,-1.4233,-1.4299,-1.4393,-1.4402,-1.4311,-1.4303,-1.4473,-1.4492,-1.4512,-1.4742,-1.4562,-1.4573,-1.458,-1.5079,-1.5087,-1.5094,0,0,0,0,0,0,-1.3995,-1.4021,-1.4285,-1.4214,-1.4216,-1.4203,-1.422,-1.4354,-1.4395,-1.429,-1.4287,-1.4307,-1.4444,-1.4491,-1.4507,-1.4716,-1.4549,-1.456,-1.4567,-1.4572,-1.5086,-1.5092,0,0,0,0,0,0,-1.4006,-1.4029,-1.4211,-1.4213,-1.4215,-1.4331,-1.4322,-1.4493,-1.4333,-1.4287,-1.4319,-1.4312,-1.4444,-1.4459,-1.4503,-1.4706,-1.4714,-1.4549,-1.4557,-1.4562,-1.4565,0,0,0,0,0,0,0,-1.4015,-1.3863,-1.4218,-1.4213,-1.4214,-1.4384,-1.4387,-1.439,-1.4331,-1.4326,-1.432,-1.4315,-1.4487,-1.4499,-1.4511,-1.4698,0,0,-1.4548,-1.4554,0,0,0,0,0,0,0,0,-1.3854,-1.3861,-1.4219,-1.4221,-1.4223,-1.4385,-1.4387,-1.4389,-1.433,-1.4326,-1.4321,-1.4317,-1.449,-1.45,-1.451,0,0,0,0,0,0,0,0,0,0,0,0,0,0,0,-1.4219,-1.4221,0,-1.4385,-1.4387,-1.4389,-1.433,-1.4326,-1.4322,-1.4319,-1.4493,-1.4501,-1.4509,0,0,0,0,0,0,0,0,0,0,0,0,0,0,0,0,0,0,0,0,0,0,0,0,0,0,0,0,0,0,0,0,0,0,0,0,0,0,0,0,0,0,0,0,0,0,0,0,0,0,0,0,0,0,0,0,0,0,0,0,0,0,0,0,0,0,0,0,0]}],[{"header":{"parameterUnit":"kt","parameterCategory":2,"dx":1,"dy":1,"la1":30.253999710083008,"la2":30.299108505249023,"lo1":-89.0895004272461,"lo2":-89.04439544677734,"nx":28,"ny":28,"refTime":"2022-09-19T21:00:00:Z","depth":0,"parameterNumber":2,"parameterNumberName":"V-component_of_WINDS"},"data":[-4.2651,-4.2717,-4.2735,-4.2817,-4.2846,-4.2904,-4.2929,-4.2964,-4.2994,-4.3063,-4.3104,-4.3125,-4.316,-4.3211,-4.3254,-4.3262,-4.3278,-4.329,-4.3296,-4.3234,-4.3226,-4.3218,-4.3205,-4.3294,-4.3294,-4.3358,-4.3358,-4.3359,-4.2603,-4.2634,-4.2683,-4.2741,-4.2783,-4.2783,-4.2828,-4.2861,-4.2912,-4.295,-4.2992,-4.3053,-4.3101,-4.3132,-4.318,-4.3208,-4.3208,-4.3219,-4.3216,-4.3221,-4.3156,-4.3141,-4.3218,-4.3218,-4.3218,-4.3218,-4.3218,-4.3218,-4.252,-4.2559,-4.2606,-4.2659,-4.2693,-4.2731,-4.277,-4.2797,-4.2843,-4.2898,-4.2907,-4.2963,-4.3003,-4.3068,-4.3093,-4.3135,-4.3124,-4.314,-4.3144,-4.3147,-4.3148,-4.3051,-4.3144,-4.3143,-4.3143,-4.3143,-4.3143,0,-4.2464,-4.2476,-4.2525,-4.2578,-4.2617,-4.266,-4.27,-4.2725,-4.2752,-4.2788,-4.2842,-4.2875,-4.2938,-4.2988,-4.3036,-4.3059,-4.3058,-4.306,-4.307,-4.3066,-4.3056,-4.306,-4.2951,-4.3056,-4.3055,-4.3055,-4.3055,-4.3054,-4.238,-4.2424,-4.248,-4.2512,-4.2539,-4.2589,-4.2621,-4.2643,-4.2676,-4.2727,-4.2759,-4.281,-4.2852,-4.2932,-4.2958,-4.3004,-4.3004,-4.3042,-4.301,-4.3005,-4.3002,-4.2998,-4.3002,-4.3047,-4.3048,-4.3049,-4.3049,0,-4.233,-4.2359,-4.2432,-4.2483,-4.2497,-4.254,-4.2582,-4.2621,-4.2642,-4.2697,-4.2711,-4.2742,-4.2792,-4.2813,-4.2874,-4.2883,-4.295,-4.295,-4.2937,-4.2937,-4.2972,-4.2968,-4.3086,-4.3102,-4.3012,-4.3013,-4.3014,0,-4.2268,-4.2325,-4.2363,-4.2404,-4.2467,-4.2488,-4.2548,-4.2573,-4.2609,-4.2652,-4.2657,-4.2697,-4.2718,-4.276,-4.2773,-4.2832,-4.2844,-4.2853,-4.2855,-4.2852,-4.285,-4.2866,-4.2861,-4.2862,-4.2861,-4.2861,-4.286,0,-4.2186,-4.2274,-4.2341,-4.2365,-4.2424,-4.2454,-4.2479,-4.2519,-4.255,-4.2594,-4.2613,-4.2662,-4.2687,-4.2723,-4.274,-4.2717,-4.2813,-4.2785,-4.2822,-4.2821,-4.284,-4.2838,-4.2941,-4.2859,-4.2859,-4.2859,-4.2859,0,-4.214,-4.2187,-4.2281,-4.233,-4.2351,-4.2395,-4.2445,-4.2488,-4.253,-4.2542,-4.2575,-4.258,-4.2635,-4.2606,-4.2681,-4.2646,-4.2671,-4.2685,-4.2688,-4.2692,-4.2658,-4.2711,-4.2808,-4.2818,-4.2698,-4.2697,-4.2696,0,-4.2037,-4.214,-4.2159,-4.2247,-4.2297,-4.23,-4.2349,-4.2386,-4.2406,-4.2449,-4.2471,-4.2519,-4.2502,-4.252,-4.2554,-4.2577,-4.2621,-4.2572,-4.2628,-4.263,-4.2616,-4.2706,-4.2715,-4.2785,-4.2679,-4.2681,-4.2682,0,-4.1961,-4.2035,-4.2049,-4.2077,-4.2132,-4.2174,-4.223,-4.2284,-4.2311,-4.2353,-4.2398,-4.2468,-4.2457,-4.2486,-4.2495,-4.2529,-4.2592,-4.2513,-4.2514,-4.2524,-4.2673,-4.2681,-4.2693,-4.2589,-4.2591,-4.2593,-4.2669,0,-4.1882,-4.1937,-4.1978,-4.204,-4.2076,-4.2133,-4.2158,-4.2192,-4.2197,-4.2217,-4.2285,-4.232,-4.2372,-4.2392,-4.2397,-4.2471,-4.2461,-4.2449,-4.242,-4.248,-4.2505,-4.2516,-4.238,-4.2379,-4.2379,-4.2378,0,0,-4.1775,-4.1856,-4.1875,-4.1931,-4.1962,-4.1964,-4.2022,-4.2052,-4.2113,-4.2133,-4.2118,-4.222,-4.2249,-4.2327,-4.2348,-4.237,-4.2384,-4.2362,-4.2452,-4.246,-4.2467,-4.2494,-4.2505,-4.2377,-4.2377,-4.2377,-4.2377,0,-4.1752,-4.1787,-4.1845,-4.1878,-4.1928,-4.1947,-4.1961,-4.2009,-4.2025,-4.2093,-4.209,-4.2133,-4.2214,-4.2244,-4.227,-4.2354,-4.2348,-4.2368,-4.2406,-4.2445,-4.2454,-4.2462,-4.249,-4.25,-4.2375,-4.2375,-4.2375,0,-4.168,-4.1718,-4.1749,-4.1823,-4.1855,-4.1906,-4.1883,-4.1938,-4.1975,-4.1971,-4.2038,-4.206,-4.2102,-4.2175,-4.2208,-4.2194,-4.2314,-4.2281,-4.2285,-4.2289,-4.2328,-4.2338,-4.2348,-4.2222,-4.2221,-4.2221,0,0,-4.1655,-4.1707,-4.1753,-4.1819,-4.184,-4.1869,-4.1899,-4.1908,-4.1948,-4.1964,-4.1992,-4.2029,-4.2076,-4.2107,-4.2152,-4.2228,-4.2237,-4.2261,-4.2268,-4.2274,-4.2281,-4.2321,-4.2332,-4.2218,-4.2218,-4.2218,0,0,-4.1642,-4.1699,-4.1699,-4.1779,-4.1819,-4.1867,-4.1905,-4.1904,-4.1948,-4.1944,-4.1959,-4.1969,-4.2037,-4.2059,-4.2025,-4.2141,-4.2113,-4.2121,-4.2125,-4.2134,-4.2141,-4.2134,-4.2004,0,0,0,0,0,-4.1631,-4.1693,-4.1692,-4.1709,-4.1801,-4.1868,-4.1879,-4.1895,-4.1874,-4.1904,-4.1928,-4.192,-4.2043,-4.2014,-4.2029,-4.2066,-4.2188,-4.2194,-4.2199,-4.2221,-4.2231,-4.2239,0,0,0,0,0,0,-4.1638,-4.1659,-4.169,-4.174,-4.1761,-4.1866,-4.1834,-4.184,-4.1871,-4.1869,-4.1916,-4.1922,-4.1934,-4.2007,-4.2021,-4.2055,-4.1999,-4.219,-4.2195,-4.2199,-4.2225,-4.2233,-4.2239,0,0,0,0,0,-4.1644,-4.1661,-4.1804,-4.1739,-4.1757,-4.1793,-4.1832,-4.1837,-4.1861,-4.1897,-4.1903,-4.187,-4.1935,-4.1947,-4.2015,-4.2049,-4.199,-4.1995,-4.2193,-4.2197,-4.22,-4.2229,0,0,0,0,0,0,-4.1648,-4.1664,-4.1808,-4.1814,-4.1718,-4.1787,-4.1799,-4.1834,-4.1887,-4.1893,-4.1851,-4.1849,-4.1936,-4.1945,-4.1955,-4.2046,-4.1982,-4.1987,-4.199,-4.2196,-4.2199,-4.2201,0,0,0,0,0,0,-4.1655,-4.1669,-4.1811,-4.1783,-4.1786,-4.1782,-4.1792,-4.1852,-4.1888,-4.1838,-4.1838,-4.185,-4.192,-4.1944,-4.1952,-4.2044,-4.1976,-4.1981,-4.1985,-4.1987,-4.2198,-4.2201,0,0,0,0,0,0,-4.1661,-4.1674,-4.1782,-4.1784,-4.1786,-4.1854,-4.1834,-4.1926,-4.1867,-4.1835,-4.1861,-4.1859,-4.192,-4.1927,-4.195,-4.2039,-4.2043,-4.1976,-4.198,-4.1982,-4.1984,0,0,0,0,0,0,0,-4.1666,-4.1582,-4.1773,-4.1784,-4.1786,-4.1869,-4.1871,-4.1872,-4.1866,-4.1864,-4.1862,-4.186,-4.1948,-4.1954,-4.1959,-4.2035,0,0,-4.1976,-4.1978,0,0,0,0,0,0,0,0,-4.1577,-4.1581,-4.1774,-4.1775,-4.1776,-4.1869,-4.1871,-4.1872,-4.1866,-4.1864,-4.1862,-4.1861,-4.195,-4.1954,-4.1959,0,0,0,0,0,0,0,0,0,0,0,0,0,0,0,-4.1774,-4.1775,0,-4.187,-4.1871,-4.1872,-4.1865,-4.1864,-4.1863,-4.1861,-4.1951,-4.1955,-4.1958,0,0,0,0,0,0,0,0,0,0,0,0,0,0,0,0,0,0,0,0,0,0,0,0,0,0,0,0,0,0,0,0,0,0,0,0,0,0,0,0,0,0,0,0,0,0,0,0,0,0,0,0,0,0,0,0,0,0,0,0,0,0,0,0,0,0,0,0,0]}]]]